Vertical_Velocity
-5 -1 -2 -5 -1 2 -5 -3 -5 -1 -8 12 9 6 -3 -6 -2 -1 -6 6 6 0 -3 7 -2 -0 -5 -0 16 5 -7 1 -0 -13 -1 -4 -2 1 1 -0 -3 -0 1
3 2 -2 3 -2 -3 1 -4 -1 -8 2 -5 4 -3 -0 -2 -2 -2 -5 -2 -1 -0 -2 -0 2 3 -4 -2 -1 -1 5 10 3 -5 -2 -5 -4 -4 -5 -1 -5 -2 -1
-1 1 0 -2 -4 -3 -6 1 -3 -1 -7 -1 -4 -1 -3 -4 -2 -2 -1 -3 -2 1 -1 -4 -4 -3 -1 -1 -3 -3 -3 0 3 2 -4 0 -3 -1 -3 2 5 3 9
-1 -5 -3 -4 -4 -2 -1 -0 0 -4 -2 -4 -1 -2 1 -3 -1 -1 -2 -1 -5 -4 -1 -3 -1 -2 -2 -1 0 0 -0 -2 1 1 -2 -7 -3 -6 15 17 3 5 2
2 -2 -8 6 4 3 -0 -2 5 0 -4 -2 0 1 -1 -0 -4 -1 0 1 -2 -4 -1 -1 -2 -2 -1 1 2 -0 -2 -2 -1 -2 -1 9 3 -5 -1 -4 -4 -7 -11
0 2 1 -4 -1 -4 0 3 -0 3 0 -2 -2 -0 0 -3 -3 -4 -4 -1 1 -4 -2 -2 1 -0 -3 -0 1 -0 0 -2 -2 1 -1 -4 -3 -1 -1 -0 -1 1 -14
3 2 0 -0 -5 -5 1 -1 2 -2 3 -4 -2 -0 -2 -3 1 -2 -2 -3 -1 -2 -4 -2 -5 -2 -3 -4 -1 1 -0 -0 1 1 -2 -2 -0 2 3 -4 1 -1 0
2 2 -0 -1 -1 -1 -2 -2 2 2 -4 -3 -3 -0 -1 -3 -1 3 2 2 -1 -2 -4 -1 -2 -5 -3 5 2 1 -2 0 -1 1 1 -1 -1 -1 -0 1 -3 -4 -6
-0 -1 1 -0 2 0 -6 -4 -1 1 -0 -5 -6 -2 -0 0 -2 -1 8 2 1 -4 -2 -1 0 -3 -3 1 4 1 0 -2 -2 -3 -1 -2 -3 1 -1 3 1 8 -8
-7 -2 8 4 -1 -4 2 -2 -0 -4 -2 3 1 2 3 -2 2 -0 5 5 2 3 1 -2 0 -0 3 1 -1 -0 -1 -5 3 1 1 -1 -0 -3 3 3 4 3 5
9 5 -2 -1 2 4 0 -2 0 1 4 1 3 5 2 -1 -2 -0 3 2 -1 1 -3 -2 -6 0 2 2 3 4 -4 3 -0 -1 -1 -1 -6 -4 -4 3 -0 -1 1
22 -2 -0 -1 5 2 1 2 0 0 1 2 0 0 -3 -2 -1 0 1 3 5 3 -2 -3 -4 -1 -4 -2 3 1 4 6 3 2 0 -2 -4 -1 2 2 2 5 10
11 7 -1 2 -1 -0 -1 3 2 2 1 -3 1 1 -2 -2 -3 -3 1 -0 0 -2 2 4 -3 2 8 7 2 2 3 0 0 1 -1 -1 -2 2 -4 1 1 -1 -2
-5 8 4 -2 -1 0 7 2 -0 -1 -1 2 -3 2 -2 -2 2 -4 -5 -3 -0 3 -0 -3 1 2 -2 0 -1 -2 -0 1 2 -0 -0 0 3 -1 2 4 -1 -0 -2
4 9 5 2 -1 -3 -5 2 -3 0 -5 -4 -2 -2 2 -7 -11 1 -5 -7 -3 -2 6 5 0 1 3 2 2 0 -4 -2 -3 -1 -0 1 -0 1 -1 3 2 2 -3
19 5 1 1 2 1 -1 7 4 4 3 1 1 -1 -2 6 2 1 3 -2 2 5 2 -2 -0 2 0 1 -1 -1 1 -2 -4 -1 5 -0 -2 1 2 2 3 1 -1
-4 14 5 -2 4 1 -1 5 -1 7 2 8 4 13 4 -1 2 3 5 7 8 7 -2 -1 -2 -1 -3 -2 1 9 7 2 3 2 -1 3 0 -1 6 2 -2 -3 -3
3 -6 6 10 5 3 -2 16 -5 -2 -1 4 5 1 7 10 3 5 4 3 4 3 0 -2 -5 -6 4 3 -1 -5 -5 -5 -6 -3 -0 -4 3 4 0 1 5 -1 -3
27 11 -0 -1 8 9 8 -2 5 1 3 7 1 4 7 6 10 -0 -4 2 2 -4 -1 -1 0 -1 -3 0 -2 -1 -3 -2 -1 -2 1 2 3 4 -2 0 -2 -4 -3
-4 6 9 4 2 4 12 17 36 22 22 4 4 -2 0 -3 -6 1 17 -6 -1 8 11 15 -9 4 6 3 4 4 7 -0 -2 -3 2 5 -6 -7 -1 -1 -2 0 -3
10 1 -2 2 6 -1 -3 1 0 12 -5 5 -5 -11 -3 -9 1 1 -11 2 9 -10 -2 1 -6 -5 7 7 2 3 2 1 3 1 5 1 3 -1 -1 -2 -4 -1 5
-2 -1 3 13 6 -2 2 5 6 2 -3 2 2 -3 54 -39 -1 9 8 6 12 6 -6 4 -1 0 2 -3 -1 0 5 11 7 4 -3 -1 -1 -1 0 -2 -5 -2 -4
1 1 9 0 8 8 6 23 -3 5 -10 0 11 9 -7 1 12 2 -5 4 5 -1 7 5 2 2 -2 3 3 -1 -5 -12 -5 1 0 3 4 5 12 -3 -3 -5 1
4 -1 6 4 -2 -3 -2 4 1 6 -4 -4 -7 -7 -14 9 -7 -3 13 22 -7 0 3 5 0 2 2 -3 -2 -1 2 -1 1 -5 3 -0 -3 -7 2 14 18 15 6
0 5 1 -3 -2 2 10 -1 -13 -14 11 9 18 9 6 4 -2 -1 -3 -10 -0 1 2 3 5 -2 3 8 5 -3 -6 -3 -2 -1 2 -3 1 -3 6 3 11 -3 5
2 -1 3 1 -2 -4 5 -2 0 6 2 3 3 6 10 7 11 -1 -3 -8 6 -5 -5 -10 -5 4 -3 1 -8 -2 4 4 0 0 0 1 4 12 -7 1 -2 -2 -1
Height
1522 1528 1534 1539 1546 1553 1558 1563 1567 1572 1575 1579 1581 1582 1584 1587 1590 1592 1594 1596 1598 1599 1600 1602 1602 1604 1604 1605 1608 1608 1609 1609 1609 1608 1608 1607 1605 1604 1603 1601 1598 1595 1593
1514 1522 1527 1533 1539 1545 1551 1556 1561 1565 1570 1573 1576 1578 1581 1583 1585 1587 1589 1592 1594 1596 1597 1599 1600 1601 1601 1602 1603 1604 1605 1606 1606 1604 1604 1604 1602 1600 1598 1596 1593 1591 1588
1510 1515 1522 1526 1531 1536 1542 1549 1553 1558 1563 1567 1570 1573 1576 1579 1581 1583 1585 1588 1590 1592 1593 1594 1596 1597 1597 1598 1599 1600 1601 1602 1602 1601 1598 1598 1598 1597 1594 1593 1590 1587 1586
1501 1507 1512 1516 1521 1527 1533 1540 1546 1550 1555 1560 1564 1567 1570 1573 1576 1578 1580 1582 1585 1587 1589 1591 1592 1592 1593 1594 1594 1595 1596 1597 1598 1597 1596 1595 1594 1593 1591 1589 1587 1586 1583
1494 1497 1501 1509 1517 1523 1527 1531 1538 1543 1547 1553 1557 1561 1564 1567 1570 1573 1575 1577 1579 1582 1584 1586 1587 1588 1588 1589 1590 1591 1592 1592 1593 1592 1592 1592 1591 1589 1587 1586 1583 1579 1576
1485 1489 1497 1505 1511 1516 1521 1526 1530 1536 1540 1545 1549 1553 1557 1559 1563 1567 1570 1572 1574 1576 1578 1581 1582 1583 1584 1585 1586 1587 1588 1588 1588 1587 1587 1585 1584 1584 1583 1581 1577 1572 1566
1479 1484 1490 1496 1501 1506 1514 1519 1524 1528 1534 1537 1541 1545 1549 1552 1556 1561 1564 1566 1569 1570 1572 1574 1576 1577 1578 1579 1580 1581 1581 1582 1582 1582 1580 1579 1578 1579 1577 1574 1571 1568 1563
1472 1477 1482 1487 1492 1499 1506 1511 1516 1522 1526 1530 1533 1537 1541 1544 1549 1554 1558 1560 1562 1564 1566 1568 1569 1570 1572 1575 1575 1574 1574 1575 1575 1576 1574 1574 1573 1573 1572 1568 1565 1561 1558
1465 1468 1473 1478 1485 1490 1495 1501 1508 1515 1519 1522 1526 1529 1532 1536 1541 1546 1551 1553 1555 1556 1559 1561 1563 1564 1565 1568 1570 1569 1569 1569 1569 1569 1568 1567 1566 1565 1564 1562 1559 1557 1553
1454 1459 1466 1472 1478 1481 1487 1493 1500 1506 1510 1515 1518 1521 1525 1529 1534 1538 1543 1546 1547 1549 1552 1553 1555 1557 1559 1560 1560 1561 1560 1562 1563 1563 1562 1562 1560 1559 1559 1557 1555 1552 1550
1448 1454 1460 1466 1470 1476 1482 1487 1492 1498 1504 1508 1512 1516 1519 1521 1524 1529 1534 1537 1539 1541 1543 1545 1546 1549 1551 1553 1554 1553 1553 1556 1555 1555 1554 1553 1553 1553 1552 1551 1550 1548 1545
1443 1446 1452 1458 1465 1471 1475 1480 1485 1491 1496 1501 1504 1508 1511 1513 1516 1519 1524 1528 1532 1534 1536 1538 1540 1542 1543 1545 1547 1548 1549 1549 1549 1548 1547 1546 1546 1547 1546 1546 1545 1545 1542
1438 1438 1444 1451 1457 1463 1468 1472 1477 1482 1487 1491 1496 1498 1502 1505 1508 1511 1515 1518 1522 1524 1527 1531 1534 1536 1539 1540 1541 1542 1544 1543 1543 1542 1541 1541 1541 1542 1541 1541 1540 1538 1537
1431 1433 1437 1442 1447 1454 1461 1465 1469 1473 1477 1482 1486 1491 1493 1499 1502 1503 1506 1509 1512 1515 1518 1521 1524 1527 1530 1531 1532 1534 1535 1536 1537 1536 1535 1534 1535 1535 1535 1535 1532 1532 1532
1422 1427 1431 1435 1440 1446 1452 1456 1459 1463 1467 1471 1476 1481 1487 1489 1491 1496 1497 1500 1504 1506 1510 1513 1514 1517 1519 1522 1524 1526 1527 1529 1529 1530 1530 1530 1530 1530 1529 1529 1528 1528 1527
1419 1422 1425 1430 1434 1439 1444 1448 1453 1458 1462 1466 1471 1477 1479 1482 1484 1488 1491 1493 1497 1502 1504 1505 1506 1509 1511 1514 1517 1519 1521 1522 1523 1524 1524 1524 1525 1525 1524 1525 1524 1523 1522
1416 1419 1422 1426 1430 1433 1437 1442 1445 1450 1456 1461 1467 1472 1473 1475 1479 1481 1484 1487 1491 1494 1495 1498 1500 1503 1504 1508 1511 1514 1515 1517 1520 1519 1518 1519 1518 1520 1521 1520 1519 1518 1518
1412 1412 1417 1420 1425 1428 1432 1437 1439 1443 1447 1452 1458 1464 1468 1470 1473 1476 1479 1482 1485 1488 1490 1493 1496 1499 1502 1502 1503 1506 1509 1511 1512 1514 1514 1515 1516 1516 1516 1516 1515 1514 1514
1406 1406 1408 1412 1417 1421 1427 1433 1434 1439 1445 1449 1453 1459 1462 1466 1467 1471 1473 1476 1478 1481 1485 1487 1492 1492 1495 1498 1497 1499 1502 1505 1504 1506 1509 1509 1511 1511 1511 1511 1510 1509 1509
1403 1406 1403 1406 1411 1416 1422 1424 1429 1434 1441 1443 1449 1455 1458 1463 1468 1471 1468 1467 1470 1475 1478 1478 1480 1485 1491 1494 1491 1494 1494 1496 1499 1501 1504 1503 1502 1503 1504 1505 1505 1505 1505
1392 1397 1406 1407 1411 1417 1420 1423 1428 1428 1440 1443 1444 1451 1453 1456 1463 1468 1468 1462 1459 1464 1472 1474 1474 1478 1483 1485 1487 1488 1490 1493 1494 1496 1496 1498 1498 1498 1497 1497 1498 1499 1500
1408 1406 1407 1412 1411 1417 1420 1425 1429 1433 1439 1442 1437 1444 1440 1441 1456 1459 1461 1458 1457 1462 1466 1469 1471 1475 1478 1480 1482 1484 1487 1488 1491 1492 1492 1494 1493 1495 1492 1492 1492 1493 1494
1412 1414 1415 1414 1416 1419 1416 1402 1423 1431 1436 1440 1441 1443 1440 1452 1449 1451 1455 1458 1458 1459 1464 1463 1465 1469 1473 1476 1476 1476 1478 1481 1485 1487 1488 1489 1490 1493 1492 1489 1489 1489 1490
1414 1415 1417 1418 1420 1420 1419 1423 1426 1434 1427 1440 1444 1442 1449 1445 1446 1455 1458 1449 1452 1458 1458 1459 1461 1464 1468 1468 1469 1473 1474 1478 1481 1483 1484 1486 1484 1487 1489 1489 1488 1488 1487
1414 1415 1417 1419 1421 1422 1420 1420 1427 1434 1437 1440 1440 1440 1443 1444 1446 1445 1444 1447 1455 1455 1457 1459 1462 1466 1467 1468 1468 1471 1473 1476 1477 1478 1479 1481 1481 1482 1484 1484 1483 1481 1482
1417 1418 1417 1419 1421 1423 1425 1427 1432 1433 1435 1435 1435 1438 1440 1440 1440 1443 1446 1450 1452 1452 1454 1458 1461 1460 1463 1462 1464 1467 1470 1472 1473 1475 1476 1478 1477 1476 1476 1475 1475 1475 1476